VKG4721 ESSA-ESGG

Flight info

Callsign VKG4721
Flight time 0h 42m
Altitude 28000
Route ARS N623 BEDLA N866 LAPSI DCT MOXAM
Aircraft A21N/M-SDE2E3FGHIRWXY/LB1

Departure

Time 2026-05-06 19:23
Airport Stockholm-Arlanda Airport (ESSA)

Arrival

Time 2026-05-06 20:06
Airport Göteborg Landvetter Airport (ESGG)
Time Latitude Longitude Altitude Speed Heading
2026-05-06 19:06 59.65282 17.93595 141 ft 0 kts 80°
2026-05-06 19:14 59.65280 17.93564 141 ft 2 kts 79°
2026-05-06 19:14 59.65277 17.93532 141 ft 2 kts 79°
2026-05-06 19:14 59.65274 17.93500 141 ft 2 kts 79°
2026-05-06 19:15 59.65271 17.93468 141 ft 2 kts 79°
2026-05-06 19:15 59.65267 17.93436 141 ft 2 kts 78°
2026-05-06 19:15 59.65264 17.93407 141 ft 1 kts 76°
2026-05-06 19:15 59.65263 17.93401 141 ft 0 kts 76°
2026-05-06 19:17 59.65264 17.93403 141 ft 0 kts 69°
2026-05-06 19:18 59.65265 17.93404 141 ft 0 kts 60°
2026-05-06 19:18 59.65316 17.93457 140 ft 5 kts 354°
2026-05-06 19:18 59.65336 17.93423 141 ft 7 kts 313°
2026-05-06 19:18 59.65396 17.93370 141 ft 14 kts 342°
2026-05-06 19:19 59.65515 17.93336 141 ft 19 kts 355°
2026-05-06 19:19 59.65605 17.93221 141 ft 13 kts 274°
2026-05-06 19:19 59.65582 17.93032 141 ft 18 kts 256°
2026-05-06 19:19 59.65547 17.92741 141 ft 24 kts 253°
2026-05-06 19:20 59.65555 17.92518 141 ft 11 kts 322°
2026-05-06 19:20 59.65641 17.92476 141 ft 16 kts 348°
2026-05-06 19:20 59.65762 17.92431 141 ft 19 kts
2026-05-06 19:20 59.65902 17.92473 141 ft 21 kts 10°
2026-05-06 19:21 59.66048 17.92526 141 ft 21 kts 10°
2026-05-06 19:21 59.66195 17.92580 141 ft 22 kts 11°
2026-05-06 19:21 59.66345 17.92635 141 ft 22 kts 10°
2026-05-06 19:21 59.66490 17.92639 141 ft 21 kts 343°
2026-05-06 19:22 59.66603 17.92544 142 ft 14 kts 316°
2026-05-06 19:22 59.66625 17.92410 145 ft 7 kts 246°
2026-05-06 19:22 59.66588 17.92359 144 ft 6 kts 191°
2026-05-06 19:22 59.66438 17.92304 145 ft 51 kts 190°
2026-05-06 19:23 59.65871 17.92099 148 ft 117 kts 190°
2026-05-06 19:23 59.64865 17.91737 224 ft 165 kts 188°
2026-05-06 19:23 59.63735 17.91293 919 ft 165 kts 191°
2026-05-06 19:23 59.62625 17.90744 1628 ft 169 kts 195°
2026-05-06 19:24 59.61489 17.89986 2249 ft 175 kts 200°
2026-05-06 19:24 59.60387 17.88861 2879 ft 184 kts 218°
2026-05-06 19:24 59.59627 17.86681 3218 ft 207 kts 243°
2026-05-06 19:24 59.59015 17.83973 3697 ft 222 kts 244°
2026-05-06 19:25 59.58389 17.81161 4381 ft 230 kts 245°
2026-05-06 19:25 59.57693 17.78143 4846 ft 250 kts 245°
2026-05-06 19:25 59.57007 17.74930 5546 ft 259 kts 253°
2026-05-06 19:25 59.56749 17.71387 6469 ft 260 kts 269°
2026-05-06 19:26 59.56788 17.67850 7448 ft 258 kts 272°
2026-05-06 19:26 59.56878 17.64296 8401 ft 261 kts 273°
2026-05-06 19:26 59.56969 17.60727 9389 ft 262 kts 272°
2026-05-06 19:26 59.57054 17.57136 10323 ft 266 kts 272°
2026-05-06 19:27 59.57137 17.53344 10757 ft 287 kts 272°
2026-05-06 19:27 59.57222 17.49230 11120 ft 310 kts 272°
2026-05-06 19:27 59.57310 17.44870 11550 ft 328 kts 272°
2026-05-06 19:27 59.57399 17.40284 12255 ft 337 kts 271°
2026-05-06 19:28 59.57487 17.35674 13093 ft 342 kts 271°
2026-05-06 19:28 59.57576 17.30932 13728 ft 345 kts 271°
2026-05-06 19:28 59.57663 17.26175 13935 ft 347 kts 271°
2026-05-06 19:28 59.57748 17.21442 13964 ft 349 kts 271°
2026-05-06 19:29 59.57833 17.16617 13978 ft 349 kts 270°
2026-05-06 19:29 59.57914 17.11874 13964 ft 349 kts 270°
2026-05-06 19:29 59.57995 17.07086 13964 ft 349 kts 270°
2026-05-06 19:29 59.58073 17.02293 14074 ft 351 kts 270°
2026-05-06 19:30 59.58151 16.97458 14778 ft 353 kts 270°
2026-05-06 19:30 59.58227 16.92651 15662 ft 352 kts 270°
2026-05-06 19:30 59.58302 16.87795 16468 ft 354 kts 270°
2026-05-06 19:30 59.58375 16.82903 17238 ft 357 kts 270°
2026-05-06 19:31 59.58445 16.78034 17962 ft 360 kts 270°
2026-05-06 19:31 59.58516 16.73052 18636 ft 362 kts 270°
2026-05-06 19:31 59.57945 16.63278 19938 ft 363 kts 251°
2026-05-06 19:32 59.56986 16.58634 20618 ft 364 kts 245°
2026-05-06 19:32 59.55841 16.54196 21271 ft 365 kts 242°
2026-05-06 19:32 59.54568 16.49799 21899 ft 367 kts 240°
2026-05-06 19:32 59.53263 16.45519 22523 ft 369 kts 239°
2026-05-06 19:33 59.51918 16.41171 23209 ft 368 kts 239°
2026-05-06 19:33 59.50599 16.36899 23763 ft 369 kts 239°
2026-05-06 19:33 59.49264 16.32537 24208 ft 371 kts 239°
2026-05-06 19:33 59.47935 16.28155 24662 ft 373 kts 239°
2026-05-06 19:34 59.46616 16.23781 25109 ft 374 kts 239°
2026-05-06 19:34 59.45287 16.19361 25516 ft 375 kts 239°
2026-05-06 19:34 59.43963 16.14958 25763 ft 381 kts 239°
2026-05-06 19:34 59.42606 16.10451 26151 ft 383 kts 239°
2026-05-06 19:35 59.41247 16.05945 26603 ft 383 kts 239°
2026-05-06 19:35 59.39885 16.01444 27031 ft 383 kts 239°
2026-05-06 19:35 59.38534 15.96985 27427 ft 384 kts 239°
2026-05-06 19:35 59.37153 15.92440 27814 ft 386 kts 239°
2026-05-06 19:36 59.35770 15.87897 27950 ft 386 kts 239°
2026-05-06 19:36 59.34408 15.83434 27961 ft 385 kts 239°
2026-05-06 19:36 59.33018 15.78890 27959 ft 385 kts 239°
2026-05-06 19:36 59.31652 15.74431 27963 ft 385 kts 239°
2026-05-06 19:37 59.30266 15.69914 27962 ft 385 kts 239°
2026-05-06 19:37 59.28896 15.65458 27959 ft 385 kts 239°
2026-05-06 19:37 59.27496 15.60914 27993 ft 385 kts 239°
2026-05-06 19:37 59.26590 15.57976 27962 ft 384 kts 239°
2026-05-06 19:38 59.24739 15.51990 27950 ft 383 kts 239°
2026-05-06 19:38 59.23364 15.47553 27945 ft 385 kts 239°
2026-05-06 19:38 59.21970 15.43063 27955 ft 386 kts 239°
2026-05-06 19:38 59.20591 15.38626 27955 ft 386 kts 239°
2026-05-06 19:39 59.19189 15.34128 27932 ft 386 kts 239°
2026-05-06 19:39 59.17787 15.29637 27950 ft 386 kts 239°
2026-05-06 19:39 59.16397 15.25196 27942 ft 386 kts 239°
2026-05-06 19:39 59.14990 15.20705 27935 ft 386 kts 239°
2026-05-06 19:40 59.13596 15.16267 27937 ft 386 kts 238°
2026-05-06 19:40 59.12201 15.11833 27950 ft 386 kts 238°
2026-05-06 19:40 59.10778 15.07319 27932 ft 386 kts 238°
2026-05-06 19:40 59.09381 15.02894 27952 ft 386 kts 238°
2026-05-06 19:41 59.07980 14.98465 27965 ft 386 kts 238°
2026-05-06 19:41 59.06563 14.93998 27946 ft 386 kts 238°
2026-05-06 19:41 59.05159 14.89577 27946 ft 386 kts 238°
2026-05-06 19:41 59.03736 14.85105 27960 ft 386 kts 238°
2026-05-06 19:42 59.02327 14.80689 27951 ft 388 kts 238°
2026-05-06 19:42 59.00909 14.76247 27969 ft 388 kts 238°
2026-05-06 19:42 58.99493 14.71826 27956 ft 388 kts 238°
2026-05-06 19:42 58.98059 14.67352 27958 ft 388 kts 238°
2026-05-06 19:43 58.96644 14.62947 27948 ft 388 kts 238°
2026-05-06 19:43 58.95208 14.58485 27950 ft 388 kts 238°
2026-05-06 19:43 58.93791 14.54090 27955 ft 388 kts 238°
2026-05-06 19:43 58.92351 14.49633 27933 ft 387 kts 238°
2026-05-06 19:44 58.90943 14.45283 27504 ft 380 kts 238°
2026-05-06 19:44 58.89551 14.40994 26970 ft 372 kts 238°
2026-05-06 19:44 58.88182 14.36782 26483 ft 365 kts 238°
2026-05-06 19:44 58.86851 14.32692 25989 ft 359 kts 238°
2026-05-06 19:45 58.85533 14.28650 25448 ft 354 kts 238°
2026-05-06 19:45 58.84201 14.24574 24566 ft 360 kts 238°
2026-05-06 19:45 58.82873 14.20514 23761 ft 363 kts 238°
2026-05-06 19:45 58.81512 14.16375 22901 ft 365 kts 237°
2026-05-06 19:46 58.79961 14.12466 22008 ft 368 kts 230°
2026-05-06 19:46 58.78218 14.08817 21304 ft 367 kts 229°
2026-05-06 19:46 58.76467 14.05317 20637 ft 364 kts 228°
2026-05-06 19:46 58.74693 14.01828 19972 ft 362 kts 227°
2026-05-06 19:47 58.72942 13.98412 19312 ft 360 kts 227°
2026-05-06 19:47 58.71169 13.94969 18695 ft 357 kts 228°
2026-05-06 19:47 58.69445 13.91630 18067 ft 355 kts 228°
2026-05-06 19:47 58.67711 13.88275 17334 ft 353 kts 227°
2026-05-06 19:48 58.65970 13.84914 16633 ft 351 kts 227°
2026-05-06 19:48 58.64258 13.81617 15954 ft 349 kts 227°
2026-05-06 19:48 58.62543 13.78316 15296 ft 347 kts 227°
2026-05-06 19:48 58.60857 13.75078 14660 ft 345 kts 227°
2026-05-06 19:49 58.59158 13.71820 14022 ft 343 kts 227°
2026-05-06 19:49 58.57488 13.68620 13302 ft 342 kts 227°
2026-05-06 19:49 58.55800 13.65391 12635 ft 340 kts 226°
2026-05-06 19:49 58.54133 13.62207 12014 ft 336 kts 226°
2026-05-06 19:50 58.52498 13.59090 11430 ft 332 kts 226°
2026-05-06 19:50 58.50878 13.56006 11083 ft 321 kts 226°
2026-05-06 19:50 58.49325 13.53055 10862 ft 308 kts 226°
2026-05-06 19:50 58.47848 13.50251 10655 ft 295 kts 225°
2026-05-06 19:51 58.46419 13.47541 10471 ft 282 kts 225°
2026-05-06 19:51 58.45043 13.44932 10160 ft 275 kts 225°
2026-05-06 19:51 58.43640 13.42274 9983 ft 304 kts 225°
2026-05-06 19:51 58.42084 13.39331 9958 ft 320 kts 225°
2026-05-06 19:52 58.40490 13.36321 10043 ft 330 kts 225°
2026-05-06 19:52 58.38838 13.33207 10050 ft 333 kts 225°
2026-05-06 19:52 58.37182 13.30091 10050 ft 334 kts 225°
2026-05-06 19:52 58.35552 13.27027 10049 ft 334 kts 225°
2026-05-06 19:53 58.33890 13.23909 10046 ft 334 kts 225°
2026-05-06 19:53 58.32218 13.20776 9945 ft 333 kts 225°
2026-05-06 19:53 58.30595 13.17740 9482 ft 326 kts 225°
2026-05-06 19:53 58.29010 13.14777 9207 ft 311 kts 225°
2026-05-06 19:54 58.28000 13.12892 9045 ft 302 kts 225°
2026-05-06 19:54 58.26070 13.09294 8749 ft 284 kts 225°
2026-05-06 19:54 58.25122 13.07529 8561 ft 277 kts 225°
2026-05-06 19:54 58.23782 13.05035 8295 ft 268 kts 224°
2026-05-06 19:55 58.22030 13.01778 7738 ft 263 kts 224°
2026-05-06 19:55 58.21159 13.00160 7429 ft 262 kts 224°
2026-05-06 19:55 58.19852 12.97733 6960 ft 261 kts 224°
2026-05-06 19:55 58.18561 12.95342 6540 ft 259 kts 224°
2026-05-06 19:56 58.17267 12.92947 6086 ft 258 kts 223°
2026-05-06 19:56 58.15991 12.90588 5575 ft 258 kts 224°
2026-05-06 19:56 58.14698 12.88203 5142 ft 258 kts 224°
2026-05-06 19:56 58.13426 12.85855 5020 ft 258 kts 224°
2026-05-06 19:57 58.12135 12.83477 5011 ft 259 kts 224°
2026-05-06 19:57 58.10837 12.81087 5012 ft 260 kts 224°
2026-05-06 19:57 58.09541 12.78702 5010 ft 260 kts 224°
2026-05-06 19:57 58.08257 12.76343 5014 ft 260 kts 224°
2026-05-06 19:58 58.06958 12.73960 5009 ft 259 kts 224°
2026-05-06 19:58 58.05656 12.71574 5017 ft 259 kts 224°
2026-05-06 19:58 58.04382 12.69207 5013 ft 259 kts 229°
2026-05-06 19:58 58.03351 12.66398 5020 ft 259 kts 238°
2026-05-06 19:59 58.02390 12.63501 5010 ft 260 kts 237°
2026-05-06 19:59 58.01318 12.60802 5011 ft 259 kts 224°
2026-05-06 19:59 57.99880 12.58739 5010 ft 259 kts 210°
2026-05-06 19:59 57.98284 12.57140 4919 ft 259 kts 207°
2026-05-06 20:00 57.96693 12.55666 4830 ft 256 kts 205°
2026-05-06 20:00 57.95046 12.54333 4835 ft 258 kts 203°
2026-05-06 20:00 57.93394 12.52935 4834 ft 259 kts 206°
2026-05-06 20:00 57.91797 12.51428 4831 ft 259 kts 207°
2026-05-06 20:01 57.90211 12.49914 4804 ft 246 kts 206°
2026-05-06 20:01 57.88725 12.48540 4804 ft 227 kts 206°
2026-05-06 20:01 57.87363 12.47295 4834 ft 214 kts 206°
2026-05-06 20:01 57.86031 12.46067 4742 ft 212 kts 207°
2026-05-06 20:02 57.84715 12.44853 4462 ft 211 kts 206°
2026-05-06 20:02 57.83394 12.43638 4115 ft 210 kts 207°
2026-05-06 20:02 57.82089 12.42438 3790 ft 210 kts 207°
2026-05-06 20:02 57.80791 12.41248 3497 ft 204 kts 207°
2026-05-06 20:03 57.79525 12.40085 3211 ft 205 kts 207°
2026-05-06 20:03 57.78238 12.38905 2930 ft 206 kts 207°
2026-05-06 20:03 57.76942 12.37717 2630 ft 207 kts 207°
2026-05-06 20:03 57.75665 12.36547 2362 ft 207 kts 207°
2026-05-06 20:04 57.74369 12.35361 2075 ft 206 kts 207°
2026-05-06 20:04 57.73093 12.34196 1792 ft 197 kts 207°
2026-05-06 20:04 57.71932 12.33137 1525 ft 178 kts 207°
2026-05-06 20:04 57.70864 12.32162 1283 ft 162 kts 208°
2026-05-06 20:05 57.69905 12.31285 1041 ft 148 kts 208°
2026-05-06 20:05 57.69019 12.30459 829 ft 138 kts 208°
2026-05-06 20:05 57.68151 12.29662 671 ft 138 kts 208°
2026-05-06 20:05 57.67293 12.28893 538 ft 135 kts 207°
2026-05-06 20:06 57.66616 12.28278 527 ft 70 kts 206°
2026-05-06 20:06 57.66281 12.27978 520 ft 29 kts 202°
2026-05-06 20:06 57.66143 12.27969 520 ft 13 kts 143°
2026-05-06 20:06 57.66111 12.28080 521 ft 9 kts 107°
2026-05-06 20:07 57.66122 12.28171 521 ft 8 kts 48°
2026-05-06 20:07 57.66173 12.28223 522 ft 8 kts 15°
2026-05-06 20:07 57.66231 12.28280 523 ft 12 kts 27°
2026-05-06 20:07 57.66325 12.28367 524 ft 18 kts 25°
2026-05-06 20:08 57.66460 12.28488 525 ft 23 kts 26°
2026-05-06 20:08 57.66602 12.28618 526 ft 23 kts 26°
2026-05-06 20:08 57.66717 12.28721 528 ft 13 kts 25°
2026-05-06 20:08 57.66792 12.28794 528 ft 11 kts 37°
2026-05-06 20:09 57.66822 12.28895 529 ft 8 kts 94°
2026-05-06 20:09 57.66802 12.29011 529 ft 8 kts 96°
2026-05-06 20:09 57.66785 12.29100 529 ft 7 kts 113°
2026-05-06 20:09 57.66800 12.29181 529 ft 7 kts 52°
2026-05-06 20:10 57.66801 12.29218 530 ft 4 kts 104°
2026-05-06 20:10 57.66782 12.29300 530 ft 5 kts 116°
2026-05-06 20:10 57.66781 12.29304 530 ft 0 kts 116°